Regional Weather Roundup
Issued by NWS

Home | Current Version | Previous Version | Text Only | Print | Product List | Glossary On
Versions: 1 2 3 4 5 6 7 8 9 10 11 12 13 14 15 16 17 18 19 20 21 22 23 24 25 26 27 28 29 30 31 32 33 34 35 36 37 38 39 40 41 42 43 44 45 46 47 48 49 50
000
ASUS44 KOUN 272210
RWROK

WEATHER ROUNDUP FOR OKLAHOMA
NATIONAL WEATHER SERVICE NORMAN OK
500 PM CDT SAT AUG 27 2016

NOTE: "FAIR" INDICATES FEW OR NO CLOUDS BELOW 12,000 FEET WITH NO
      SIGNIFICANT WEATHER AND/OR OBSTRUCTIONS TO VISIBILITY.

OKZ001>007-009>012-014-015-017-272300-
NORTHWEST OKLAHOMA AND THE PANHANDLE

CITY           SKY/WX    TMP DP  RH WIND       PRES   REMARKS
GAGE           MOSUNNY   93  59  31 S16       29.95F HX  92
GUYMON         CLOUDY    78  61  55 SE18G25   29.98S THUNDER
$$

OKZ016-021>023-033>039-044-045-272300-
SOUTHWEST OKLAHOMA

CITY           SKY/WX    TMP DP  RH WIND       PRES   REMARKS
LAWTON/REGL    CLOUDY    91  66  43 SE13      29.93F HX  93
LAWTON/FT SILL TSTM      84  70  61 E25       29.93S
FREDERICK      CLOUDY    82  67  60 S13       29.92F
CLINTON        SUNNY     89  65  44 SE12      29.99F HX  91
HOBART         MOSUNNY   91  68  46 E14       29.97F HX  95
ALTUS AFB      MOSUNNY   89  67  47 S12       29.94F HX  92
$$

OKZ018>020-024>031-272300-
CENTRAL OKLAHOMA

CITY           SKY/WX    TMP DP  RH WIND       PRES   REMARKS
OKLAHOMA CITY  CLOUDY    83  68  60 W3        29.97S
OKC/WILEY POST CLOUDY    88  67  49 CALM      29.97F HX  91
OKC/TINKER AFB MOSUNNY   88  67  49 SE6       29.96S HX  90
GUTHRIE        MOSUNNY   90  69  50 VRB3      29.96S HX  94
$$

OKZ008-013-054>072-272300-
NORTHEAST OKLAHOMA

CITY           SKY/WX    TMP DP  RH WIND       PRES   REMARKS
TULSA          MOSUNNY   94  69  44 S7        29.94S HX  99
TULSA/JONES    SUNNY     92  70  48 E10       29.95S HX  97
PONCA CITY     SUNNY     91  67  44 VRB7G17   29.95F HX  94
BARTLESVILLE   SUNNY     92  68  45 SE9       29.96S HX  96
MUSKOGEE       PTSUNNY   91  70  49 SE9       29.97S HX  96
$$

OKZ032-040>043-046>053-073>077-272300-
SOUTH CENTRAL/SOUTHEAST OKLAHOMA

CITY           SKY/WX    TMP DP  RH WIND       PRES   REMARKS
ARDMORE/DWNTWN SUNNY     90  64  43 S7        29.95S HX  91
MCALESTER      CLOUDY    84  68  58 E7        29.98S
$$





USA.gov is the U.S. government's official web portal to all federal, state and local government web resources and services.